sat.trackr.live / text

‹ back to catalog

STARLINK-36547

NORAD 67520 · 2026-012AD

PAYLOAD ACTIVE UNKNOWN

§ Identity

Operator
Country
US
Launch date
2026-01-18
Launch site
AFETR
Launch vehicle
Mass (kg)
RCS (m²)

Purposes: comms

External: N2YO · Heavens-Above · Gunter

§ Orbital elements

Epoch: 2026-09-19T19:34:22.666368Z

Period
94.27 min
Inclination
43.0050°
Eccentricity
0.0001546
Mean motion
15.27589101 rev/d
Perigee alt
482.0 km
Apogee alt
484.1 km
Semi-major
6,861.2 km
B*
3.2161e-4
RAAN
297.8347°
Arg perigee
274.5199°
Mean anomaly
85.5476°
Rev number
3,745

§ Raw data

STARLINK-365471 67520U 26012AD  26262.81554012  .00008600  00000+0  32161-3 0  99942 67520  43.0050 297.8347 0001546 274.5199  85.5476 15.27589101 37450

JSON: /api/v1/satellites/67520 · /tle

For live sub-satellite position, see the globe view (requires WebGL).

§ Visibility from observer

Set your observer location to see the next 7 days of passes ≥ 10°. The values pass through the URL so the page stays shareable.

No JS? Fill the form by hand. The geolocation button needs JavaScript.